Regional Weather Roundup
Issued by NWS

Home | Current Version | Previous Version | Text Only | Print | Product List | Glossary On
Versions: 1 2 3 4 5 6 7 8 9 10 11 12 13 14 15 16 17 18 19 20 21 22 23 24 25 26 27 28 29 30 31 32 33 34 35 36 37 38 39 40 41 42 43 44 45 46 47 48 49 50
000
ASPQ40 PGUM 281112
RWRPQ
WEATHER ROUNDUP FOR THE MARIANAS AND MICRONESIA
NATIONAL WEATHER SERVICE TIYAN GU
900 PM CHST THU AUG 28 2014

GUZ001>004-281200-
MARIANA ISLANDS-

CITY           SKY/WX    TMP DP  RH WIND       PRES   REMARKS
GUAM AIRPORT   CLEAR     82  77  83 CALM      29.89R HX  91
ANDERSEN AFB   CLEAR     81  75  83 NE8       29.90R
ROTA AIRPORT   NOT AVBL
TINIAN AP      NOT AVBL
SAIPAN AP      CLEAR     82  77  83 N5        29.89R HX  91

$$

PMZ161-281200-
REPUBLIC OF PALAU-

CITY           SKY/WX    TMP DP  RH WIND       PRES   REMARKS
KOROR AP       MOCLDY    81  79  94 CALM      29.85R
KOROR WSO      PTCLDY    82  75  78 SW5       29.84R

$$

PMZ171>174-281200-
FEDERATED STATES OF MICRONESIA-

CITY           SKY/WX    TMP DP  RH WIND       PRES   REMARKS
YAP AIRPORT    CLOUDY    77  75  94 VRB5      29.84R
CHUUK AP       CLOUDY    82  79  89 NE7       29.82R HX  93
POHNPEI AP     NOT AVBL
POHNPEI WSO    MOCLDY    77  75  94 SE3       29.85R
KOSRAE AP      NOT AVBL

$$

PMZ181-281200-
REPUBLIC OF THE MARSHALL ISLANDS-

CITY           SKY/WX    TMP DP  RH WIND       PRES   REMARKS
KWAJALEIN AP   MOCLDY    84  73  70 SE8       29.84S HX  91
MAJURO AP      NOT AVBL
MAJURO WSO     PTCLDY    84  75  74 VRB2      29.83S HX  92

$$



USA.gov is the U.S. government's official web portal to all federal, state and local government web resources and services.